Le nostre stazioni meteo in Italia

Pubblicità
Il mio iltempo24.it
Catania/Fontanarossa, Italia (16460): Temperatura & dewpoint: 10.12.2017 17:00:00 - 16.12.2017 17:00:00 (CET)Catania/Fontanarossa, Italia (16460): velocità del vento: 10.12.2017 17:00:00 - 16.12.2017 17:00:00 (CET)Catania/Fontanarossa, Italia (16460): direzione del vento: 10.12.2017 17:00:00 - 16.12.2017 17:00:00 (CET)Catania/Fontanarossa, Italia (16460): reduced air pressure: 10.12.2017 17:00:00 - 16.12.2017 17:00:00 (CET)Catania/Fontanarossa, Italia (16460): visibility: 10.12.2017 17:00:00 - 16.12.2017 17:00:00 (CET)Catania/Fontanarossa, Italia (16460): precipitazioni: 10.12.2017 17:00:00 - 16.12.2017 17:00:00 (CET)
Data & Tempo tt [°C] td [°C] ff [km/h] ff [kn] dd ppp [hPa] vv [km] rr [mm]
16.12.2017 17:00:00 14,0 13,0 4 2 - - 10 -
16.12.2017 16:00:00 14,1 13,0 8 4 SO 1007,9 10 0,0
16.12.2017 15:00:00 17,0 12,0 8 4 O - 10 -
16.12.2017 14:00:00 17,0 11,0 11 6 O - 10 -
16.12.2017 13:00:00 18,0 11,2 15 8 O 1007,4 10 -
16.12.2017 12:00:00 17,0 11,0 13 7 O - 10 -
16.12.2017 11:00:00 13,0 10,0 5 3 SSO - 10 -
16.12.2017 10:00:00 12,2 9,4 9 5 OSO 1009,1 10 0,0
16.12.2017 09:00:00 12,0 8,0 13 7 OSO - 10 -
16.12.2017 08:00:00 11,0 8,0 16 9 OSO - 10 -
16.12.2017 07:00:00 12,8 8,1 15 8 O 1008,0 10 -
16.12.2017 06:00:00 12,0 9,0 11 6 O - 10 -
16.12.2017 05:00:00 13,0 9,0 15 8 ONO - 10 -
16.12.2017 04:00:00 11,1 7,1 18 10 O 1008,9 10 0,0
16.12.2017 03:00:00 9,0 6,0 16 9 OSO - 10 -
16.12.2017 02:00:00 9,0 7,0 15 8 O - 10 -
16.12.2017 01:00:00 9,6 7,0 13 7 OSO 1009,7 10 -
16.12.2017 00:00:00 12,0 7,0 18 10 O - 10 -
15.12.2017 23:00:00 13,0 8,0 16 9 O - 10 -
15.12.2017 22:00:00 13,6 8,4 15 8 O 1010,6 10 0,0
15.12.2017 21:00:00 13,0 9,0 15 8 O - 10 -
15.12.2017 20:00:00 12,0 10,0 16 9 OSO - 10 -
15.12.2017 19:00:00 14,1 10,3 18 10 O 1010,6 10 -
15.12.2017 18:00:00 15,0 10,0 29 16 OSO - 10 -
15.12.2017 17:00:00 16,0 9,0 22 12 SO - 10 -
15.12.2017 16:00:00 17,3 7,7 18 10 O 1010,2 10 0,0
15.12.2017 15:00:00 19,0 7,0 29 16 OSO - 10 -
15.12.2017 14:00:00 19,0 7,0 28 15 OSO - 10 -
15.12.2017 13:00:00 18,5 9,1 21 11 O 1012,0 10 -
15.12.2017 12:00:00 18,0 9,0 24 13 O - 10 -
15.12.2017 11:00:00 16,0 9,0 18 10 OSO - 10 -
15.12.2017 10:00:00 13,1 7,6 18 10 OSO 1015,5 10 0,0
15.12.2017 09:00:00 10,0 6,0 18 10 OSO - 10 -
15.12.2017 08:00:00 7,0 5,0 13 7 SO - 10 -
15.12.2017 07:00:00 6,8 4,8 15 8 O 1015,9 10 -
15.12.2017 06:00:00 8,0 6,0 16 9 OSO - 10 -
15.12.2017 05:00:00 8,0 5,0 18 10 OSO - 10 -
15.12.2017 04:00:00 7,7 5,3 18 10 OSO 1016,7 10 0,0
15.12.2017 03:00:00 7,0 5,0 13 7 OSO - 10 -
15.12.2017 02:00:00 7,0 5,0 13 7 SO - 10 -
15.12.2017 01:00:00 7,9 5,2 15 8 OSO 1018,5 10 -
15.12.2017 00:00:00 8,0 6,0 15 8 OSO - 10 -
14.12.2017 23:00:00 8,0 5,0 13 7 O - 10 -
14.12.2017 22:00:00 9,6 5,9 11 6 ONO 1018,7 10 0,0
14.12.2017 21:00:00 9,0 6,0 16 9 O - 10 -
14.12.2017 20:00:00 11,0 6,0 16 9 O - 10 -
14.12.2017 19:00:00 10,7 6,8 18 10 OSO 1019,3 10 -
14.12.2017 18:00:00 13,0 8,0 16 9 O - 10 -
14.12.2017 17:00:00 15,0 7,0 21 11 O - 10 -
14.12.2017 16:00:00 16,4 7,2 29 16 O 1018,8 10 0,0
14.12.2017 15:00:00 18,0 5,0 34 18 O - 10 -
14.12.2017 14:00:00 18,0 5,0 34 18 O - 10 -
14.12.2017 13:00:00 17,1 3,8 37 20 O 1019,4 10 -
14.12.2017 12:00:00 16,0 5,0 29 16 O - 10 -
14.12.2017 11:00:00 15,0 5,0 18 10 O - 10 -
14.12.2017 10:00:00 13,4 5,4 18 10 O 1022,5 10 0,0
14.12.2017 09:00:00 12,0 5,0 24 13 O - 10 -
14.12.2017 08:00:00 9,0 5,0 11 6 ONO - 10 -
14.12.2017 07:00:00 7,0 4,4 15 8 O 1021,0 10 -
14.12.2017 06:00:00 7,0 5,0 13 7 OSO - 10 -
14.12.2017 05:00:00 9,0 5,0 11 6 O - 10 -
14.12.2017 04:00:00 9,7 6,0 18 10 ONO 1021,1 10 0,0
14.12.2017 03:00:00 10,0 7,0 21 11 O - 10 -
14.12.2017 02:00:00 10,0 7,0 21 11 OSO - 10 -
14.12.2017 01:00:00 10,2 6,9 21 11 O 1021,2 10 -
14.12.2017 00:00:00 11,0 8,0 13 7 ONO - 10 -
13.12.2017 23:00:00 12,0 8,0 15 8 O - 10 -
13.12.2017 22:00:00 11,7 9,2 13 7 O 1021,6 10 0,0
13.12.2017 21:00:00 12,0 10,0 5 3 OSO - 10 -
13.12.2017 20:00:00 14,0 12,0 8 4 O - 10 -
13.12.2017 19:00:00 14,0 12,0 8 4 ONO - 10 -
13.12.2017 18:00:00 16,0 12,0 5 3 - - 10 -
13.12.2017 17:00:00 17,0 12,0 8 4 SO - 10 -
13.12.2017 16:00:00 18,2 11,2 11 6 OSO 1020,1 10 0,0
13.12.2017 15:00:00 19,0 11,0 13 7 OSO - 10 -
13.12.2017 14:00:00 20,0 11,0 16 9 O - 10 -
13.12.2017 13:00:00 19,3 10,8 21 11 O 1020,7 25 -
13.12.2017 12:00:00 19,0 11,0 29 16 O - 10 -
13.12.2017 11:00:00 19,0 10,0 18 10 O - 10 -
13.12.2017 10:00:00 17,4 9,6 15 8 SO 1022,5 10 0,0
13.12.2017 09:00:00 10,0 6,0 13 7 OSO - 10 -
13.12.2017 08:00:00 9,0 5,0 18 10 OSO - 10 -
13.12.2017 07:00:00 8,4 4,6 18 10 OSO 1022,2 10 -
13.12.2017 06:00:00 8,0 4,0 18 10 OSO - 10 -
13.12.2017 05:00:00 10,0 4,0 15 8 OSO - 10 -
13.12.2017 04:00:00 8,0 3,9 15 8 SO 1021,2 10 0,0
13.12.2017 03:00:00 8,0 4,0 18 10 OSO - 10 -
13.12.2017 02:00:00 8,0 5,0 16 9 SO - 10 -
13.12.2017 01:00:00 7,6 5,0 13 7 OSO 1022,0 10 -
13.12.2017 00:00:00 7,0 6,0 13 7 SO - 10 -
12.12.2017 23:00:00 9,0 6,0 16 9 OSO - 10 -
12.12.2017 22:00:00 8,9 6,2 11 6 OSO 1022,3 10 0,0
12.12.2017 21:00:00 9,0 7,0 9 5 OSO - 10 -
12.12.2017 20:00:00 11,0 8,0 11 6 OSO - 10 -
12.12.2017 19:00:00 12,1 7,5 9 5 O 1021,2 10 -
12.12.2017 18:00:00 14,0 8,0 15 8 OSO - 10 -
12.12.2017 17:00:00 16,0 8,0 15 8 OSO - 10 -
12.12.2017 16:00:00 18,4 7,8 16 9 OSO 1019,4 - 0,0
12.12.2017 15:00:00 20,0 7,0 22 12 O - 10 -
12.12.2017 14:00:00 20,0 10,0 21 11 OSO - 10 -
12.12.2017 13:00:00 20,0 10,8 16 9 OSO 1018,9 10 -
12.12.2017 12:00:00 19,0 11,0 16 9 O - 10 -
12.12.2017 11:00:00 18,0 13,0 11 6 OSO - 10 -
12.12.2017 10:00:00 14,3 11,4 11 6 OSO 1020,2 10 0,0
12.12.2017 09:00:00 10,0 9,0 13 7 OSO - 10 -
12.12.2017 08:00:00 7,0 7,0 8 4 SSO - 10 -
12.12.2017 07:00:00 5,8 5,4 13 7 OSO 1018,9 10 -
12.12.2017 06:00:00 - - - - - - - -
12.12.2017 05:00:00 6,0 6,0 8 4 SSO - 10 -
12.12.2017 04:00:00 6,0 5,5 11 6 OSO 1018,1 10 0,0
12.12.2017 03:00:00 7,0 6,0 9 5 SO - 10 -
12.12.2017 02:00:00 7,0 6,0 8 4 OSO - 10 -
12.12.2017 01:00:00 7,0 6,1 8 4 SO 1018,0 10 -
12.12.2017 00:00:00 7,0 6,0 8 4 OSO - 10 -
11.12.2017 23:00:00 8,0 7,0 9 5 SO - 10 -
11.12.2017 22:00:00 8,4 7,0 9 5 SO 1018,2 10 0,0
11.12.2017 21:00:00 11,0 8,0 13 7 O - 10 -
11.12.2017 20:00:00 12,0 9,0 13 7 O - 10 -
11.12.2017 19:00:00 12,6 9,0 15 8 O 1018,2 10 -
11.12.2017 18:00:00 14,0 9,0 16 9 O - 10 -
11.12.2017 17:00:00 16,0 9,0 16 9 O - 10 -
11.12.2017 16:00:00 18,0 11,4 18 10 O 1016,6 10 0,0
11.12.2017 15:00:00 17,0 11,0 15 8 OSO - 10 -
11.12.2017 14:00:00 18,0 11,0 16 9 O - 10 -
11.12.2017 13:00:00 17,9 12,2 18 10 OSO 1017,2 10 -
11.12.2017 12:00:00 - - - - - - - -
11.12.2017 11:00:00 12,0 9,0 16 9 OSO - 10 -
11.12.2017 10:00:00 12,7 8,0 13 7 OSO 1019,2 10 0,0
11.12.2017 09:00:00 10,0 7,0 13 7 O - 10 -
11.12.2017 08:00:00 8,0 5,0 15 8 OSO - 10 -
11.12.2017 07:00:00 8,7 5,2 13 7 O 1019,1 10 -
11.12.2017 06:00:00 8,0 5,0 13 7 O - 10 -
11.12.2017 05:00:00 8,0 4,0 13 7 OSO - 10 -
11.12.2017 04:00:00 7,5 3,8 15 8 OSO 1019,3 10 0,0
11.12.2017 03:00:00 6,0 3,0 16 9 SO - 10 -
11.12.2017 02:00:00 5,0 3,0 13 7 SSO - 10 -
11.12.2017 01:00:00 4,7 2,5 13 7 SO 1020,0 10 -
11.12.2017 00:00:00 2,0 1,0 11 6 OSO - 10 -
10.12.2017 23:00:00 3,0 2,0 13 7 SO - 10 -
10.12.2017 22:00:00 4,4 2,2 11 6 OSO 1021,1 10 0,0
10.12.2017 21:00:00 5,0 2,0 11 6 OSO - 10 -
10.12.2017 20:00:00 6,0 3,0 11 6 OSO - 10 -
10.12.2017 19:00:00 6,0 2,6 9 5 O 1020,8 10 -
10.12.2017 18:00:00 11,0 4,0 4 2 O - 10 -
10.12.2017 17:00:00 13,0 4,0 5 3 SSE - 10 -

tt = Temperatura
td = dewpoint
ff = velocità del vento
dd = direzione del vento
ppp = reduced air pressure
vv = visibility
rr = precipitazioni

Stazioni seguenti

WeatherPro
AMSI
MeteoEarth